Theta_e
286 288 290 292 295 303 305 307 301 295 295 295 295 291 291 291 290 293 293 293 293 292 292 292 291 288 288 287 285 284 283 284 281 279 282 285 285 280 284 283 282 285 285
285 286 287 289 290 289 294 296 296 297 296 294 294 294 292 291 292 294 291 291 293 291 290 290 290 288 287 287 287 285 286 284 282 281 282 283 284 284 285 283 284 284 282
285 286 286 286 287 287 287 289 293 296 296 294 295 295 294 292 291 293 293 291 292 291 290 289 289 288 287 287 286 286 283 282 279 280 280 283 283 283 282 282 281 282 283
282 283 284 285 285 286 287 287 288 290 293 294 295 295 295 292 290 289 288 288 288 288 289 289 289 289 289 287 286 285 283 282 281 281 279 280 279 279 279 280 280 279 281
281 281 281 283 285 286 286 286 286 287 287 289 290 290 289 289 289 288 288 288 288 287 287 288 288 288 289 289 287 284 284 284 283 282 281 280 280 280 280 280 281 281 281
279 279 281 281 282 283 284 285 286 286 286 287 286 287 287 288 291 291 290 288 288 288 287 287 287 286 288 290 290 289 288 285 283 283 281 281 282 281 281 281 280 274 275
277 277 278 280 280 281 282 284 284 285 285 285 286 286 286 286 291 292 290 288 287 288 287 286 286 286 287 287 289 289 289 289 288 285 283 282 281 282 281 277 275 275 275
274 275 276 277 278 280 280 281 281 282 283 284 285 285 285 286 291 292 290 288 287 287 287 287 286 285 287 287 286 286 285 286 286 285 284 284 284 283 281 280 278 274 275
273 273 273 273 274 276 278 279 280 281 281 282 283 283 284 285 290 291 290 287 286 286 286 286 286 285 287 288 286 284 284 284 288 287 287 287 287 287 283 279 274 273 272
272 272 272 272 271 271 272 276 278 280 280 281 282 282 283 284 288 290 290 286 285 284 285 286 285 286 288 288 285 284 282 283 284 283 284 286 286 286 286 282 278 274 273
272 271 271 271 271 271 270 272 272 273 276 277 279 279 280 282 285 289 291 285 284 283 283 283 284 287 288 288 287 285 284 284 285 283 281 281 281 282 283 282 280 279 275
269 269 269 269 271 272 268 269 268 268 269 269 270 274 278 281 286 290 289 287 286 283 283 283 284 287 288 289 286 287 287 284 283 281 280 279 278 278 278 281 281 280 281
265 266 265 266 270 270 268 269 269 268 267 269 271 270 271 277 280 287 287 287 287 283 283 284 286 287 288 287 286 286 284 282 281 279 278 278 278 277 276 274 274 276 278
262 265 268 267 268 268 271 271 268 267 267 269 269 269 270 272 275 279 283 285 284 283 284 284 285 285 286 285 284 285 283 281 280 279 279 278 277 276 275 276 277 278 278
263 265 266 268 266 268 270 269 271 270 272 270 267 268 268 269 273 279 281 283 280 282 282 282 282 282 280 280 281 282 281 281 280 279 276 277 276 275 275 277 275 272 274
262 263 264 265 265 267 267 267 275 277 278 279 280 276 274 279 280 281 283 285 285 285 280 278 278 278 278 278 277 276 278 278 278 277 277 277 275 275 273 273 269 269 274
254 259 260 261 262 263 263 263 263 270 278 279 279 280 280 280 282 282 283 284 286 284 278 278 277 277 276 276 276 275 274 275 276 276 275 275 273 271 271 272 266 267 266
249 254 254 257 258 259 259 260 259 261 262 265 274 278 279 280 282 283 284 284 282 280 278 277 277 277 276 276 275 274 273 273 273 273 272 270 269 269 266 265 265 265 264
252 253 252 253 254 258 258 258 257 257 259 260 263 273 271 279 283 282 282 277 276 275 276 276 277 276 276 276 275 274 272 271 270 268 268 266 266 265 264 265 265 263 262
248 252 254 253 254 254 256 256 257 258 257 256 258 262 266 271 272 273 275 276 276 275 276 276 276 276 275 275 274 272 270 270 268 266 265 266 265 265 264 262 261 259 258
249 249 253 251 253 253 253 255 255 254 257 257 255 258 272 265 265 270 273 274 275 275 275 275 274 275 274 274 273 273 272 271 270 269 267 266 264 262 261 262 261 258 259
248 249 248 249 252 254 253 253 255 255 254 255 258 258 273 259 262 263 266 269 270 270 271 273 273 273 274 274 274 273 272 270 269 268 266 265 264 263 262 259 257 254 251
248 248 249 249 250 253 253 252 253 253 253 252 253 255 257 258 260 260 261 262 264 266 268 272 272 271 272 273 274 274 272 271 270 268 267 265 263 261 258 255 253 250 250
249 249 250 251 251 250 250 251 251 253 253 253 252 252 255 254 257 259 259 259 261 262 264 266 271 271 270 269 269 268 269 267 266 267 266 264 260 259 256 253 251 249 248
251 252 252 254 255 254 256 257 255 250 250 252 253 252 252 252 254 255 256 258 259 259 259 261 262 265 266 266 265 264 264 265 262 262 261 261 259 257 254 252 248 246 245
255 256 256 255 257 257 256 258 259 260 259 257 253 252 252 252 252 252 252 252 255 258 256 255 257 260 261 261 261 262 262 263 258 257 256 256 255 251 250 251 249 247 246
Wind_Speed
8 6 6 5 5 5 6 9 9 8 9 10 11 9 9 10 9 11 10 11 13 10 9 11 11 7 6 4 3 3 3 4 4 1 1 1 2 3 2 1 1 3 3
7 5 4 4 4 3 3 7 7 10 10 12 12 12 12 12 12 13 12 11 14 13 12 11 11 7 7 6 5 5 5 3 5 5 2 2 2 3 3 2 3 3 3
7 7 6 6 6 5 3 2 7 8 11 10 12 14 14 13 13 14 14 13 14 13 13 13 12 12 10 7 6 6 4 3 2 4 4 2 2 3 3 3 3 4 4
7 7 8 8 6 5 4 3 1 2 9 10 11 12 12 11 10 10 9 8 7 7 9 11 11 14 14 11 8 8 5 5 3 3 2 3 3 2 2 3 2 1 2
8 9 8 7 6 6 6 5 3 4 3 1 7 6 6 9 9 11 10 10 10 8 7 7 9 12 15 15 11 10 10 7 5 3 2 2 3 2 4 2 2 1 2
9 10 8 8 7 7 6 5 4 4 3 4 3 3 5 5 11 16 13 10 10 10 10 9 7 10 15 19 18 21 18 13 10 6 4 4 5 3 3 3 3 2 2
10 10 10 9 8 7 6 5 5 4 3 2 2 4 5 4 11 14 14 8 9 10 10 9 8 7 10 11 14 18 16 17 14 10 9 5 5 6 6 4 3 3 3
11 10 10 10 9 8 7 6 5 3 3 2 1 2 3 4 13 15 16 9 9 10 11 11 12 11 12 13 12 10 9 8 7 5 6 5 4 5 6 5 5 3 1
10 9 9 8 7 8 8 7 5 4 3 2 1 1 3 3 11 13 13 8 8 9 10 12 13 14 19 21 14 12 9 6 7 9 7 7 10 11 9 6 2 3 0
9 8 7 6 6 6 5 5 4 3 3 3 2 2 3 3 8 13 13 6 7 6 6 9 16 15 24 24 13 12 11 9 9 7 7 9 10 8 13 5 6 3 2
7 6 6 6 5 5 5 4 3 3 4 4 3 4 3 3 6 14 17 7 6 6 7 6 7 21 23 23 19 12 11 10 12 7 4 3 3 4 4 4 5 3 3
6 6 6 6 5 4 4 4 4 4 4 4 3 3 4 4 2 9 13 8 11 7 7 6 7 20 21 20 13 13 16 13 7 6 6 4 3 2 2 3 5 4 2
6 6 4 5 5 5 5 5 3 4 3 3 2 2 3 4 4 6 7 8 12 5 5 10 14 17 17 15 16 17 14 7 7 6 6 4 3 3 4 3 2 2 2
6 6 5 5 5 4 3 3 3 3 3 3 2 2 2 2 3 2 2 4 8 5 10 7 10 9 9 8 11 11 6 6 6 6 5 3 3 3 2 3 2 2 2
4 4 5 5 5 4 3 2 2 2 2 1 2 1 0 2 2 2 1 4 3 5 6 5 5 5 5 5 4 6 6 7 6 5 3 4 3 3 2 2 2 2 2
4 4 4 4 4 4 3 4 7 5 5 5 6 2 2 6 6 7 7 8 13 14 3 3 4 5 5 5 5 4 3 6 5 5 4 5 4 4 3 2 2 2 2
2 4 4 4 4 3 3 2 3 6 7 6 5 6 4 6 6 8 9 9 14 14 2 4 5 5 5 5 5 5 3 3 5 5 4 4 4 3 4 3 2 2 1
3 4 3 3 3 4 3 3 1 1 2 4 6 7 7 6 7 4 10 11 5 6 5 5 5 5 5 6 5 3 5 4 3 4 4 4 4 4 2 2 2 3 2
3 3 3 3 3 3 3 2 1 2 2 3 3 5 7 11 2 3 11 4 5 4 3 4 5 5 5 5 5 5 5 4 4 4 4 4 4 3 2 2 3 3 4
3 5 3 2 2 3 2 2 2 1 1 2 2 3 4 4 3 3 3 3 4 3 3 4 4 4 5 5 5 5 5 5 4 3 3 3 3 3 3 3 3 3 2
2 3 4 3 2 2 2 2 2 2 2 2 3 3 5 1 1 2 1 2 3 3 3 3 3 4 4 5 6 5 5 5 4 4 4 4 4 3 2 3 3 3 3
2 2 2 3 3 3 3 2 2 2 3 2 3 3 5 1 1 2 1 1 2 2 1 3 3 3 4 5 5 5 5 5 4 4 4 4 4 3 3 3 3 2 2
2 2 3 3 2 3 2 2 2 2 2 3 3 2 2 0 1 1 1 1 2 2 2 3 4 4 3 3 3 4 5 4 4 5 5 4 4 4 3 3 3 3 2
2 3 3 3 2 2 2 3 3 3 3 3 2 2 2 2 2 2 2 1 2 2 2 2 3 5 4 3 3 3 3 3 3 4 6 6 5 5 3 3 3 3 3
3 3 3 3 3 3 3 3 3 3 3 3 3 2 2 1 1 2 1 1 2 3 3 3 3 4 6 6 5 5 4 6 5 5 4 6 7 8 5 4 4 3 3
4 4 4 3 3 3 3 3 3 3 4 4 4 3 3 3 3 3 3 2 2 2 2 2 3 4 5 4 5 6 5 7 6 6 5 6 7 5 4 5 6 3 4
Wind_Direction
36 18 16 357 352 277 176 184 168 150 159 167 173 166 171 173 176 180 181 173 188 187 189 191 202 169 178 175 157 137 139 128 130 292 143 149 138 162 184 195 205 203 235
28 13 21 354 348 345 231 180 164 167 172 171 172 184 184 184 184 190 180 182 191 193 193 188 196 174 176 172 169 173 162 155 130 150 149 144 165 191 207 220 233 222 225
26 31 29 18 4 11 359 283 175 168 180 175 176 188 194 193 190 196 193 191 196 197 190 192 187 176 182 174 176 172 146 124 112 128 147 138 159 178 194 220 215 227 229
28 33 36 18 357 358 21 42 73 180 173 180 190 193 197 188 188 183 172 173 185 190 196 194 185 190 187 175 170 166 143 142 130 115 125 141 156 190 136 161 245 236 259
24 35 24 6 2 7 19 28 51 93 59 134 177 183 174 178 183 176 179 180 179 175 172 190 192 183 179 178 170 170 163 163 157 148 125 127 160 155 183 181 181 229 291
32 28 20 15 15 16 14 18 31 54 89 124 107 129 168 178 185 185 177 181 182 184 192 189 184 189 177 181 182 176 172 166 173 167 161 182 186 170 155 170 155 118 303
26 23 15 11 16 12 13 24 30 24 24 68 135 156 159 145 182 187 183 178 181 191 191 183 180 186 180 176 179 174 177 181 180 173 181 177 156 174 150 162 156 152 202
25 20 13 9 11 9 16 18 16 11 17 19 164 170 155 184 193 190 184 182 190 194 191 183 181 174 178 167 162 166 163 170 164 159 170 158 163 167 173 167 165 154 51
17 11 3 5 10 8 11 2 7 7 15 3 341 190 185 201 213 204 188 184 194 192 187 184 181 177 174 168 161 158 154 149 166 161 160 177 200 185 154 120 118 99 292
5 357 349 352 3 6 351 350 345 352 7 6 12 353 238 229 228 221 196 180 189 178 177 187 185 179 172 168 165 160 170 176 168 165 176 187 198 186 175 165 144 138 145
345 350 354 351 351 354 342 347 346 9 29 21 31 4 2 249 240 235 193 170 170 169 178 178 184 177 168 166 170 176 182 153 167 165 152 142 141 163 172 168 158 147 153
342 350 349 346 354 358 5 348 358 21 38 18 27 9 359 352 217 193 159 158 171 175 177 174 172 175 172 169 157 157 152 144 154 152 158 168 161 166 170 155 166 187 154
350 344 333 341 350 350 4 358 1 15 35 1 26 16 355 359 15 126 158 180 182 159 159 167 163 164 168 168 157 162 157 152 155 154 169 170 169 167 115 94 65 100 118
346 342 337 349 343 345 352 353 9 10 4 359 358 342 340 358 7 18 142 163 143 132 146 146 155 153 158 152 158 170 153 154 156 157 158 139 125 128 124 146 129 135 128
321 329 342 337 340 332 331 292 317 279 257 300 268 223 300 313 274 253 163 142 122 138 120 126 144 146 140 139 139 148 143 151 156 153 136 147 144 134 129 120 141 131 134
336 342 338 326 326 320 325 326 323 326 319 315 315 266 283 266 269 241 228 175 159 151 126 130 129 138 148 148 142 119 126 143 146 145 147 154 147 147 129 118 106 122 139
304 311 315 317 312 326 328 349 340 328 334 346 319 324 290 279 273 231 215 211 174 154 139 147 146 144 141 138 137 131 123 121 119 132 139 140 128 109 131 163 130 117 110
285 270 260 285 301 307 300 297 313 332 319 312 335 357 338 311 289 229 213 196 177 129 143 145 140 138 139 137 133 116 118 124 117 127 127 132 136 135 126 136 141 137 127
292 291 283 278 271 280 291 295 286 325 308 288 329 328 354 351 87 81 85 102 107 106 124 131 135 138 134 132 129 125 135 140 134 122 123 130 137 128 115 110 112 98 107
269 278 287 292 305 305 296 301 311 276 294 299 302 275 322 351 24 27 33 89 98 114 127 131 134 133 134 136 131 132 128 131 129 125 133 131 135 124 130 133 130 129 152
265 291 300 318 305 273 260 255 256 259 254 246 251 261 269 103 25 23 71 118 131 133 133 126 132 138 140 132 130 135 137 141 142 137 139 133 140 125 109 110 123 109 121
234 261 287 276 286 298 269 251 246 238 251 259 275 292 315 94 150 146 91 59 75 99 126 135 128 131 139 138 136 135 140 147 143 145 141 138 135 122 121 109 109 110 110
233 254 271 277 259 283 296 283 259 237 254 253 262 286 345 84 187 198 176 186 152 116 86 97 110 100 83 100 111 133 144 163 163 147 148 149 145 137 134 135 133 106 120
236 240 242 252 262 253 246 253 256 258 249 259 275 269 250 234 213 211 217 187 140 129 111 104 133 139 128 112 104 100 110 116 129 154 146 145 141 131 119 114 137 117 130
239 249 244 238 231 228 235 245 236 233 240 233 240 245 253 223 220 231 229 99 128 133 140 123 102 132 145 146 144 139 138 130 131 129 124 126 138 145 137 124 136 116 117
232 237 246 240 245 229 218 219 222 220 220 214 219 225 224 228 229 223 202 196 187 171 152 137 145 153 152 148 156 152 147 134 130 130 125 125 131 134 135 134 137 119 116